{"data":{"norad_id":61252,"intl_designator":"2024-175K","name":"STARLINK-11318 [DTC]","alt_names":[],"object_type":"PAYLOAD","status":"ACTIVE","operator":null,"country":"US","launch_date":"2024-09-25","launch_site_code":"AFWTR","launch_vehicle":null,"mission":null,"orbit_class":"UNKNOWN","rcs_meters":null,"size_class":null,"mass_kg":null,"dimensions":null,"purposes":["comms"],"wikipedia_slug":null,"has_3d_model":false,"image_url":null,"decayed_at":null,"tle_current":{"epoch":"2026-05-25T02:19:00.914304Z","epoch_age_seconds":62858,"freshness":"FRESH","line1":"1 61252U 24175K   26145.09653836  .00000294  00000+0  72844-5 0  9997","line2":"2 61252  53.1584  39.8536 0000747  79.1542 280.9559 15.69708125 96539","mean_motion":15.69708125,"eccentricity":7.47e-5,"inclination_deg":53.1584,"raan_deg":39.8536,"arg_perigee_deg":79.1542,"mean_anomaly_deg":280.9559,"bstar":7.2844e-6,"rev_number":9653,"period_min":91.736799795185,"perigee_km":359.22879713445,"apogee_km":360.23543478037,"semimajor_km":6737.8691159574,"source":"CELESTRAK","updated_at":"2026-05-25T13:38:19.365531Z"}}}